Accueil
METAR-TAF:

METAR-TAF

Aéroports :

Vannes, France

Aéroport de Vannes

latitude: 47-43-19N, longitude: 2-43-41W, altitude: 130 m

Observation

Le bulletin a été fait il y a 14 minutes, à 01:30 UTC
Vent 3 kt de nord/nord-est
Température 12°C
Humidité 94%
Pression 1021 hPa
Visibilité: 5000 m
brume

METAR: LFRV 170130Z AUTO 03003KT 5000 BR NSC 12/11 Q1021

Heure: 03:44 (01:44 UTC)


TAF: absent

Observations et prévisions météorologiques de plus de 4000 aéroports (messages METAR et TAF).

Les stations disponibles sont représentées par des disques jaunes et rouges sur la carte.

Passer la souris dessus pour voir le nom de la station.

Cliquer dessus pour voir les observations et prévisions météorologiques.

Pour changer de carte: cliquez sur les boutons verts avec une croix noire pour zoomer, sur le bouton vert avec un tiret pour effectuer un zoom arrière, ou sur les flèches vertes pour les cartes adjacentes.


METAR-TAF: